Weather reports worldwide

Advertisment
Bonifati, Italy (16337): temperature & dewpoint: 17.04.2018 01:00:00 - 23.04.2018 01:00:00 (CEST)Bonifati, Italy (16337): wind speed: 17.04.2018 01:00:00 - 23.04.2018 01:00:00 (CEST)Bonifati, Italy (16337): wind direction: 17.04.2018 01:00:00 - 23.04.2018 01:00:00 (CEST)Bonifati, Italy (16337): reduced air pressure: 17.04.2018 01:00:00 - 23.04.2018 01:00:00 (CEST)Bonifati, Italy (16337): visibility: 17.04.2018 01:00:00 - 23.04.2018 01:00:00 (CEST)
Date & Time tt [°C] td [°C] ff [km/h] ff [kn] dd ppp [hPa] vv [km]
23.04.2018 01:00:00 - - - - - - -
23.04.2018 00:00:00 - - - - - - -
22.04.2018 23:00:00 - - - - - - -
22.04.2018 22:00:00 - - - - - - -
22.04.2018 21:00:00 - - - - - - -
22.04.2018 20:00:00 15,2 13,6 0 0 N 1018,2 7
22.04.2018 19:00:00 - - - - - - -
22.04.2018 18:00:00 - - - - - - -
22.04.2018 17:00:00 18,2 13,7 9 5 SW 1017,6 10
22.04.2018 16:00:00 - - - - - - -
22.04.2018 15:00:00 - - - - - - -
22.04.2018 14:00:00 18,8 13,4 0 0 N 1017,9 10
22.04.2018 13:00:00 - - - - - - -
22.04.2018 12:00:00 - - - - - - -
22.04.2018 11:00:00 15,4 13,6 2 1 S 1018,9 8
22.04.2018 10:00:00 - - - - - - -
22.04.2018 09:00:00 - - - - - - -
22.04.2018 08:00:00 14,8 9,2 0 0 N 1018,5 6
22.04.2018 07:00:00 - - - - - - -
22.04.2018 06:00:00 - - - - - - -
22.04.2018 05:00:00 - - - - - - -
22.04.2018 04:00:00 - - - - - - -
22.04.2018 03:00:00 - - - - - - -
22.04.2018 02:00:00 - - - - - - -
22.04.2018 01:00:00 - - - - - - -
22.04.2018 00:00:00 - - - - - - -
21.04.2018 23:00:00 - - - - - - -
21.04.2018 22:00:00 - - - - - - -
21.04.2018 21:00:00 - - - - - - -
21.04.2018 20:00:00 14,8 12,8 0 0 N 1018,3 2,5
21.04.2018 19:00:00 - - - - - - -
21.04.2018 18:00:00 - - - - - - -
21.04.2018 17:00:00 18,0 14,1 0 0 N 1017,8 8
21.04.2018 16:00:00 - - - - - - -
21.04.2018 15:00:00 - - - - - - -
21.04.2018 14:00:00 15,6 13,6 2 1 S 1019,1 8
21.04.2018 13:00:00 - - - - - - -
21.04.2018 12:00:00 - - - - - - -
21.04.2018 11:00:00 16,6 13,0 5 3 SSW 1018,9 10
21.04.2018 10:00:00 - - - - - - -
21.04.2018 09:00:00 - - - - - - -
21.04.2018 08:00:00 13,0 10,4 2 1 S 1019,1 10
21.04.2018 07:00:00 - - - - - - -
21.04.2018 06:00:00 - - - - - - -
21.04.2018 05:00:00 - - - - - - -
21.04.2018 04:00:00 - - - - - - -
21.04.2018 03:00:00 - - - - - - -
21.04.2018 02:00:00 - - - - - - -
21.04.2018 01:00:00 - - - - - - -
21.04.2018 00:00:00 - - - - - - -
20.04.2018 23:00:00 - - - - - - -
20.04.2018 22:00:00 - - - - - - -
20.04.2018 21:00:00 - - - - - - -
20.04.2018 20:00:00 15,0 12,9 0 0 N 1018,5 8
20.04.2018 19:00:00 - - - - - - -
20.04.2018 18:00:00 - - - - - - -
20.04.2018 17:00:00 16,4 13,7 0 0 N 1018,6 8
20.04.2018 16:00:00 - - - - - - -
20.04.2018 15:00:00 - - - - - - -
20.04.2018 14:00:00 16,2 13,9 11 6 SSW 1020,1 1,0
20.04.2018 13:00:00 - - - - - - -
20.04.2018 12:00:00 - - - - - - -
20.04.2018 11:00:00 15,8 14,3 4 2 S 1020,2 0,5
20.04.2018 10:00:00 - - - - - - -
20.04.2018 09:00:00 - - - - - - -
20.04.2018 08:00:00 14,0 11,4 0 0 N 1020,7 12
20.04.2018 07:00:00 - - - - - - -
20.04.2018 06:00:00 - - - - - - -
20.04.2018 05:00:00 - - - - - - -
20.04.2018 04:00:00 - - - - - - -
20.04.2018 03:00:00 - - - - - - -
20.04.2018 02:00:00 - - - - - - -
20.04.2018 01:00:00 - - - - - - -
20.04.2018 00:00:00 - - - - - - -
19.04.2018 23:00:00 - - - - - - -
19.04.2018 22:00:00 - - - - - - -
19.04.2018 21:00:00 - - - - - - -
19.04.2018 20:00:00 16,0 13,1 4 2 N 1022,2 16
19.04.2018 19:00:00 - - - - - - -
19.04.2018 18:00:00 - - - - - - -
19.04.2018 17:00:00 19,0 14,3 8 4 NE 1021,5 18
19.04.2018 16:00:00 - - - - - - -
19.04.2018 15:00:00 - - - - - - -
19.04.2018 14:00:00 20,4 13,8 9 5 S 1021,9 18
19.04.2018 13:00:00 - - - - - - -
19.04.2018 12:00:00 - - - - - - -
19.04.2018 11:00:00 17,8 11,1 0 0 N 1022,9 18
19.04.2018 10:00:00 - - - - - - -
19.04.2018 09:00:00 - - - - - - -
19.04.2018 08:00:00 14,0 9,8 4 2 NW 1022,9 18
19.04.2018 07:00:00 - - - - - - -
19.04.2018 06:00:00 - - - - - - -
19.04.2018 05:00:00 - - - - - - -
19.04.2018 04:00:00 - - - - - - -
19.04.2018 03:00:00 - - - - - - -
19.04.2018 02:00:00 - - - - - - -
19.04.2018 01:00:00 - - - - - - -
19.04.2018 00:00:00 - - - - - - -
18.04.2018 23:00:00 - - - - - - -
18.04.2018 22:00:00 - - - - - - -
18.04.2018 21:00:00 - - - - - - -
18.04.2018 20:00:00 14,8 12,1 0 0 N 1022,0 18
18.04.2018 19:00:00 - - - - - - -
18.04.2018 18:00:00 - - - - - - -
18.04.2018 17:00:00 17,4 11,0 0 0 N 1021,4 10
18.04.2018 16:00:00 - - - - - - -
18.04.2018 15:00:00 - - - - - - -
18.04.2018 14:00:00 17,8 11,8 8 4 WNW 1021,3 18
18.04.2018 13:00:00 - - - - - - -
18.04.2018 12:00:00 - - - - - - -
18.04.2018 11:00:00 17,0 9,9 4 2 WNW 1021,1 10
18.04.2018 10:00:00 - - - - - - -
18.04.2018 09:00:00 - - - - - - -
18.04.2018 08:00:00 13,4 9,7 5 3 ENE 1021,3 18
18.04.2018 07:00:00 - - - - - - -
18.04.2018 06:00:00 - - - - - - -
18.04.2018 05:00:00 - - - - - - -
18.04.2018 04:00:00 - - - - - - -
18.04.2018 03:00:00 - - - - - - -
18.04.2018 02:00:00 - - - - - - -
18.04.2018 01:00:00 - - - - - - -
18.04.2018 00:00:00 - - - - - - -
17.04.2018 23:00:00 - - - - - - -
17.04.2018 22:00:00 - - - - - - -
17.04.2018 21:00:00 - - - - - - -
17.04.2018 20:00:00 12,6 9,8 0 0 N 1019,4 0,1
17.04.2018 19:00:00 - - - - - - -
17.04.2018 18:00:00 - - - - - - -
17.04.2018 17:00:00 14,0 11,5 0 0 N 1019,1 0,1
17.04.2018 16:00:00 - - - - - - -
17.04.2018 15:00:00 - - - - - - -
17.04.2018 14:00:00 14,0 11,0 8 4 SSW 1019,4 0,1
17.04.2018 13:00:00 - - - - - - -
17.04.2018 12:00:00 - - - - - - -
17.04.2018 11:00:00 13,6 10,2 4 2 SSW 1018,8 0,1
17.04.2018 10:00:00 - - - - - - -
17.04.2018 09:00:00 - - - - - - -
17.04.2018 08:00:00 12,0 8,8 8 4 S 1018,1 0,1
17.04.2018 07:00:00 - - - - - - -
17.04.2018 06:00:00 - - - - - - -
17.04.2018 05:00:00 - - - - - - -
17.04.2018 04:00:00 - - - - - - -
17.04.2018 03:00:00 - - - - - - -
17.04.2018 02:00:00 - - - - - - -
17.04.2018 01:00:00 - - - - - - -

tt = temperature
td = dewpoint
ff = wind speed
dd = wind direction
ppp = reduced air pressure
vv = visibility

Next stations